Hourly Data Report for November 30, 2018

CARBERRY CS
MANITOBA
Current Station Operator: ECCC - MSC

49°54'20.900" N
99°21'26.800" W
383.50 m
5010547
71170
WZE

Download Data

Hourly Data (November 2018)
Hourly Data Report for November 30, 2018
TIME
LST
Temp Definition
°C
Dew Point Definition
°C
Rel Hum Definition
%
Precip. Amount Definition
mm

Wind Dir Definition
10's deg

Wind Spd Definition
km/h
Visibility Definition
km
Stn Press Definition
kPa
Hmdx Definition


Wind Chill Definition


Weather Definition


00:00 -5.4 -6.2 94 0.0 28 9   96.30   -9 LegendNANA
01:00 -5.3 -6.8 89 0.0 28 11   96.34   -10 LegendNANA
02:00 -5.3 -6.9 88 0.0 29 11   96.35   -10 LegendNANA
03:00 -5.3 -6.7 90 0.0 29 5   96.38   -8 LegendNANA
04:00 -5.4 -6.9 89 0.0 27 10   96.38   -10 LegendNANA
05:00 -5.5 -7.1 89 0.0 32 4   96.41   -7 LegendNANA
06:00 -5.7 -7.1 90 0.0 0 1   96.46   -6 LegendNANA
07:00 -5.8 -7.2 90 0.0 5 1   96.53   -6 LegendNANA
08:00 -6.0 -7.2 91 0.0 6 2   96.54   -7 LegendNANA
09:00 -6.2 -7.1 93 0.0 16 7   96.57   -10 LegendNANA
10:00 -5.9 -6.3 97 0.0 17 8   96.64   -10 LegendNANA
11:00 -5.5 -6.0 96 0.0 18 8   96.65   -9 LegendNANA
12:00 -5.0 -5.4 97 0.0 17 4   96.62   -7 LegendNANA
13:00 -4.9 -5.5 96 0.0 20 7   96.64   -8 LegendNANA
14:00 -5.1 -5.7 95 0.0 17 9   96.65   -9 LegendNANA
15:00 -5.1 -5.7 95 0.0 11 8   96.63   -9 LegendNANA
16:00 -5.2 -6.0 94 0.0 14 11   96.71   -10 LegendNANA
17:00 -5.3 -6.0 95 0.0 16 8   96.75   -9 LegendNANA
18:00 -5.2 -5.5 98 0.0 13 8   96.77   -9 LegendNANA
19:00 -5.1 -5.2 99 0.0 13 9   96.81   -9 LegendNANA
20:00 -5.0 -5.1 99 0.0 12 7   96.84   -8 LegendNANA
21:00 -4.8 -5.0 99 0.0 14 6   96.86   -8 LegendNANA
22:00 -4.9 -5.2 98 0.0 13 5   96.86   -7 LegendNANA
23:00 -5.6 -6.1 97 0.0 13 7   96.90   -9 LegendNANA

Notes on Data Quality.

Legend

  • E = Estimated
  • M = Missing
  • NA = Not Available*
  • [empty] = Indicates an unobserved value
Date modified: